Sidney, MT (59270)

12:05 AM MDT on August 28, 2015 (GMT -0600)
Miller's Subdivision | | Change Station
CLOSE
Current Station
Personal Weather Station
Location: Sidney, MT
Elevation: 1969 ft
Nearby Weather Stations

Elev 1969 ft 47.72 °N, 104.19 °W | Updated 31 seconds ago

Clear
Clear
65.8 °F
Feels Like 65.8 °F
N
3.1
Wind Variable Wind from South
Gusts 5.4 mph

Today
High -- | Low -- °F
--% Chance of Precip.
Yesterday
High -- | Low -- °F
Precip. -- in
6:09 AM 7:45 PM
Waxing Gibbous, 97% visible
Pressure 29.86 in
Visibility 10.0 miles
Clouds Clear
Dew Point 63 °F
Humidity 89%
Rainfall 0.00 in
Snow Depth Not available.
UV 0 out of 12
Pollen 9.80 out of 12
Air Quality Not available.
Flu Activity Not available.
METAR KSDY 280555Z AUTO 17006KT 10SM CLR 17/14 A2986 RMK AO1 10300 20170 57007
Pressure 29.86 in
Visibility 10.0 miles
Clouds Clear
Dew Point 63 °F
Humidity 89%
Rainfall 0.00 in
Snow Depth Not available.
UV 0 out of 12
Pollen 9.80 out of 12
Air Quality Not available.
Flu Activity Not available.
METAR KSDY 280555Z AUTO 17006KT 10SM CLR 17/14 A2986 RMK AO1 10300 20170 57007

10-Day Weather Forecast

×

Almanac

Astronomy

Aug. 28, 2015 Rise Set
Actual Time
Civil Twilight
Nautical Twilight
Astronomical Twilight
Moon
Length of Visible Light
Length of Day
Tomorrow will be .
, % of the Moon is Illuminated

Today's Extremes

State Highs State Lows

Community

WunderPhotos

Upload Photos

1,850,341 photos uploaded!

WunderBlogs® & News

Nearby

Air Quality

  Air Quality AQ Index Pollutant
Not available.

Snow Depth

Station Depth Elevation

Earthquake Activity

City Distance Mag. Time & Date
Minimum magnitude displayed is 2.5.

Coastal Water Temperatures

Place Temperature

Stations

Nearby Weather Stations

Station Location Temp. Windchill Dew Point Humidity Wind Precip. Elev Updated Type